Location: New Canada
(47.1017°N, 68.5042°W)
Time: 15:38:26
(UTC+00:00)

KKS-1 - Pass Details

Date: 24 April 2024
Orbit: 628 x 639 km, 98.1° (Epoch: 21 May)

Event Time Altitude Azimuth Distance (km) Brightness Sun altitude
Rises 05:40:22 0° 354° (N) 2,958 ? -28.0°
Reaches altitude 10° 05:44:21 10° 318° (NW) 2,042 ? -27.7°
Maximum altitude 05:45:26 11° 304° (NW) 1,986 ? -27.7°
Enters shadow 05:45:54 11° 298° (WNW) 1,996 ? -27.6°
